CAPE
1371 1222 1036 705 374 68 1 0 0 0 0 0 0 4 6 7 3 0 7 30 98 29 32 11 21 19 13 18 7 12 13 26 25
1302 924 728 382 127 14 1 0 0 0 0 0 0 0 0 0 0 0 0 20 37 32 71 20 20 10 9 15 12 12 14 10 13
1209 773 666 269 82 15 1 0 0 0 0 0 0 0 0 0 0 0 0 30 8 14 43 33 13 5 5 5 9 11 4 8 8
1247 992 852 445 219 133 27 0 0 0 0 0 0 0 0 0 0 0 0 6 6 5 5 2 6 5 6 6 7 9 8 11 9
1124 869 877 823 595 346 193 5 0 0 0 0 0 0 0 0 0 0 0 8 3 2 4 2 4 3 3 2 3 4 5 4 4
799 596 668 720 662 460 274 135 35 0 0 0 0 0 0 0 0 0 0 1 2 0 0 1 0 0 0 0 0 0 0 0 0
680 490 498 601 564 446 414 265 59 0 0 0 0 0 0 0 0 0 0 0 1 0 0 0 0 0 0 0 0 0 0 0 0
740 501 457 405 500 339 364 174 0 0 0 0 0 0 0 0 0 0 0 0 0 1 0 0 0 0 0 0 0 0 0 0 0
736 502 415 314 293 295 213 41 0 0 0 0 0 0 0 0 0 0 0 0 0 1 0 0 0 0 0 0 0 0 0 0 0
602 561 433 391 257 190 153 42 0 0 0 0 0 0 0 0 0 0 0 0 0 0 0 0 0 0 0 0 0 0 0 0 0
472 522 480 430 353 256 142 55 0 0 0 0 0 0 0 0 0 0 0 0 0 0 0 0 1 2 2 1 2 0 1 0 16
753 593 452 436 428 334 239 140 18 0 0 0 0 0 0 0 0 0 0 0 0 0 0 0 2 3 5 6 10 66 126 111 130
671 725 667 429 462 431 319 209 121 10 0 0 0 0 0 0 0 0 0 0 0 0 0 70 80 76 60 63 103 264 296 185 70
636 545 606 619 495 495 417 289 162 35 24 0 0 0 0 0 0 0 0 0 0 0 0 0 0 51 123 120 121 53 194 212 179
406 762 535 540 505 441 486 387 189 78 39 13 0 0 0 0 0 0 0 0 0 0 0 0 0 0 0 19 44 62 46 159 207
205 324 583 541 564 429 423 477 311 132 70 31 5 0 0 0 0 0 0 0 0 0 0 0 0 0 0 0 0 13 14 11 38
0 91 211 573 738 496 407 261 338 194 125 53 36 9 1 0 0 0 0 0 0 0 0 0 0 0 0 0 0 3 15 32 40
0 0 92 139 459 417 430 406 316 168 175 130 70 35 3 12 11 0 0 0 0 0 0 0 0 0 0 0 0 0 0 10 43
0 0 0 25 102 241 388 367 401 351 214 272 69 31 17 9 6 21 15 0 0 0 0 0 0 0 0 0 0 0 0 0 24
0 0 0 0 60 75 114 363 418 366 244 152 74 63 62 42 22 7 33 19 20 1 0 0 0 0 0 0 0 0 0 5 31
CIN
-0 -0 -0 -1 -35 -198 -0 -0 -0 -0 -0 -0 -0 -20 -30 -7 -8 -0 -5 -355 -248 -0 -0 -0 -0 -0 -0 -0 -0 -0 -0 -0 -0
-0 -0 -3 -43 -117 -259 -0 -0 -0 -0 -0 -0 -0 -0 -0 -0 -0 -0 -0 -0 -0 -0 -304 -0 -0 -0 -0 -0 -0 -0 -0 -0 -0
-0 -0 -1 -73 -157 -220 -0 -0 -0 -0 -0 -0 -0 -0 -0 -0 -0 -0 -0 -3 -0 -0 -0 -0 -0 -0 -0 -0 -0 -0 -0 -0 -0
-2 -0 -0 -20 -82 -122 -138 -0 -0 -0 -0 -0 -0 -0 -0 -0 -0 -0 -0 -2 -0 -0 -0 -0 -0 -0 -0 -0 -0 -0 -0 -0 -0
-6 -1 -0 -0 -0 -17 -62 -219 -0 -0 -0 -0 -0 -0 -0 -0 -0 -0 -0 -1 -0 -0 -0 -0 -0 -0 -0 -0 -0 -0 -0 -0 -0
-4 -10 -4 -2 -0 -0 -33 -72 -124 -0 -0 -0 -0 -0 -0 -0 -0 -0 -0 -0 -0 -0 -0 -0 -0 -0 -0 -0 -0 -0 -0 -0 -0
-6 -31 -18 -3 -1 -1 -1 -14 -90 -0 -0 -0 -0 -0 -0 -0 -0 -0 -0 -0 -0 -0 -0 -0 -0 -0 -0 -0 -0 -0 -0 -0 -0
-5 -26 -27 -53 -6 -4 -3 -46 -0 -0 -0 -0 -0 -0 -0 -0 -0 -0 -0 -0 -0 -0 -0 -0 -0 -0 -0 -0 -0 -0 -0 -0 -0
-3 -32 -46 -72 -75 -17 -34 -133 -0 -0 -0 -0 -0 -0 -0 -0 -0 -0 -0 -0 -0 -0 -0 -0 -0 -0 -0 -0 -0 -0 -0 -0 -0
-14 -14 -31 -54 -79 -83 -58 -121 -0 -0 -0 -0 -0 -0 -0 -0 -0 -0 -0 -0 -0 -0 -0 -0 -0 -0 -0 -0 -0 -0 -0 -0 -0
-13 -15 -20 -41 -45 -55 -78 -113 -0 -0 -0 -0 -0 -0 -0 -0 -0 -0 -0 -0 -0 -0 -0 -0 -0 -0 -0 -0 -0 -0 -0 -0 -0
-1 -2 -20 -39 -27 -24 -40 -57 -90 -0 -0 -0 -0 -0 -0 -0 -0 -0 -0 -0 -0 -0 -0 -0 -0 -0 -0 -0 -0 -25 -28 -40 -46
-3 -1 -1 -25 -19 -14 -13 -36 -43 -98 -15 -0 -0 -0 -0 -0 -0 -0 -0 -0 -0 -0 -0 -28 -29 -42 -46 -39 -16 -1 -0 -1 -31
-0 -1 -4 -4 -14 -7 -2 -2 -26 -35 -35 -1 -0 -0 -0 -0 -0 -0 -0 -0 -0 -0 -0 -0 -0 -36 -9 -13 -6 -27 -0 -1 -7
-2 -0 -2 -6 -4 -8 -3 -0 -3 -44 -11 -5 -0 -0 -0 -0 -0 -0 -0 -0 -0 -0 -0 -0 -0 -0 -0 -48 -37 -23 -31 -3 -9
-8 -1 -0 -0 -0 -6 -9 -3 -0 -10 -18 -5 -26 -0 -0 -0 -0 -0 -0 -0 -0 -0 -0 -0 -0 -0 -0 -0 -0 -62 -46 -33 -14
-0 -1 -4 -0 -0 -0 -1 -7 -2 -2 -6 -4 -11 -9 -6 -0 -0 -0 -0 -0 -0 -0 -0 -0 -0 -0 -0 -0 -0 -62 -90 -43 -13
-0 -0 -0 -2 -0 -0 -0 -0 -0 -0 -0 -0 -0 -0 -14 -13 -5 -5 -0 -0 -0 -0 -0 -0 -0 -0 -0 -0 -0 -0 -0 -105 -53
-0 -0 -0 -0 -2 -1 -0 -2 -0 -0 -0 -0 -0 -1 -6 -16 -24 -7 -6 -0 -0 -0 -0 -0 -0 -0 -0 -0 -0 -0 -0 -0 -71
-0 -0 -0 -0 -2 -1 -3 -1 -0 -0 -0 -0 -4 -70 -0 -1 -1 -19 -14 -13 -7 -9 -0 -0 -0 -0 -7 -0 -0 -0 -0 -40 -47
Wind_Speed
22 21 21 22 21 nan nan nan nan nan nan nan nan nan nan nan nan nan nan nan nan nan nan nan nan nan nan nan nan nan nan nan nan
27 23 22 22 21 nan nan nan nan nan nan nan nan nan nan nan nan nan nan nan nan nan nan nan nan nan nan nan nan nan nan nan nan
28 26 25 25 nan nan nan nan nan nan nan nan nan nan nan nan nan nan nan nan nan nan nan nan nan nan nan nan nan nan nan nan nan
27 26 25 24 24 24 nan nan nan nan nan nan nan nan nan nan nan nan nan nan nan nan nan nan nan nan nan nan nan nan nan nan nan
27 27 24 25 24 24 24 nan nan nan nan nan nan nan nan nan nan nan nan nan nan nan nan nan nan nan nan nan nan nan nan nan nan
22 25 25 27 28 27 25 22 nan nan nan nan nan nan nan nan nan nan nan nan nan nan nan nan nan nan nan nan nan nan nan nan nan
19 16 27 30 30 29 25 22 nan nan nan nan nan nan nan nan nan nan nan nan nan nan nan nan nan nan nan nan nan nan nan nan nan
19 23 24 26 27 31 29 29 nan nan nan nan nan nan nan nan nan nan nan nan nan nan nan nan nan nan nan nan nan nan nan nan nan
26 26 25 18 23 31 34 nan nan nan nan nan nan nan nan nan nan nan nan nan nan nan nan nan nan nan nan nan nan nan nan nan nan
29 30 28 27 26 30 31 nan nan nan nan nan nan nan nan nan nan nan nan nan nan nan nan nan nan nan nan nan nan nan nan nan nan
31 31 31 29 28 29 27 nan nan nan nan nan nan nan nan nan nan nan nan nan nan nan nan nan nan nan nan nan nan nan nan nan nan
33 34 32 31 30 28 21 21 nan nan nan nan nan nan nan nan nan nan nan nan nan nan nan nan nan nan nan nan nan nan 18 18 17
35 35 33 33 33 30 28 26 23 nan nan nan nan nan nan nan nan nan nan nan nan nan nan nan nan nan nan nan 17 17 20 22 nan
36 36 35 37 36 36 33 29 27 nan nan nan nan nan nan nan nan nan nan nan nan nan nan nan nan nan 20 19 18 nan 18 21 21
39 38 38 40 40 37 37 33 31 nan nan nan nan nan nan nan nan nan nan nan nan nan nan nan nan nan nan nan nan nan nan 20 21
42 41 41 41 41 36 37 38 34 32 nan nan nan nan nan nan nan nan nan nan nan nan nan nan nan nan nan nan nan nan nan nan nan
nan nan 41 42 43 40 40 40 41 38 39 nan nan nan nan nan nan nan nan nan nan nan nan nan nan nan nan nan nan nan nan nan nan
nan nan nan 42 46 46 45 45 43 42 44 39 nan nan nan nan nan nan nan nan nan nan nan nan nan nan nan nan nan nan nan nan nan
nan nan nan nan 45 47 49 48 48 48 47 47 nan nan nan nan nan nan nan nan nan nan nan nan nan nan nan nan nan nan nan nan nan
nan nan nan nan nan nan 46 51 51 51 50 51 nan nan nan nan nan nan nan nan nan nan nan nan nan nan nan nan nan nan nan nan nan
Wind_Direction
283 285 284 282 287 nan nan nan nan nan nan nan nan nan nan nan nan nan nan nan nan nan nan nan nan nan nan nan nan nan nan nan nan
283 285 287 290 289 nan nan nan nan nan nan nan nan nan nan nan nan nan nan nan nan nan nan nan nan nan nan nan nan nan nan nan nan
284 285 285 290 nan nan nan nan nan nan nan nan nan nan nan nan nan nan nan nan nan nan nan nan nan nan nan nan nan nan nan nan nan
283 284 283 284 287 290 nan nan nan nan nan nan nan nan nan nan nan nan nan nan nan nan nan nan nan nan nan nan nan nan nan nan nan
280 280 285 284 279 277 282 nan nan nan nan nan nan nan nan nan nan nan nan nan nan nan nan nan nan nan nan nan nan nan nan nan nan
282 282 286 285 281 278 279 278 nan nan nan nan nan nan nan nan nan nan nan nan nan nan nan nan nan nan nan nan nan nan nan nan nan
291 295 308 305 278 274 273 270 nan nan nan nan nan nan nan nan nan nan nan nan nan nan nan nan nan nan nan nan nan nan nan nan nan
275 276 293 307 274 263 264 261 nan nan nan nan nan nan nan nan nan nan nan nan nan nan nan nan nan nan nan nan nan nan nan nan nan
280 280 289 291 299 285 262 nan nan nan nan nan nan nan nan nan nan nan nan nan nan nan nan nan nan nan nan nan nan nan nan nan nan
278 282 284 285 281 307 265 nan nan nan nan nan nan nan nan nan nan nan nan nan nan nan nan nan nan nan nan nan nan nan nan nan nan
274 278 285 290 293 299 273 nan nan nan nan nan nan nan nan nan nan nan nan nan nan nan nan nan nan nan nan nan nan nan nan nan nan
273 275 280 287 289 292 292 263 nan nan nan nan nan nan nan nan nan nan nan nan nan nan nan nan nan nan nan nan nan nan 333 337 334
267 269 276 278 280 280 277 288 284 nan nan nan nan nan nan nan nan nan nan nan nan nan nan nan nan nan nan nan 327 321 319 319 nan
263 265 266 269 270 274 273 271 276 nan nan nan nan nan nan nan nan nan nan nan nan nan nan nan nan nan 311 317 318 nan 317 316 321
260 258 262 266 266 268 272 274 269 nan nan nan nan nan nan nan nan nan nan nan nan nan nan nan nan nan nan nan nan nan nan 316 316
255 258 258 261 266 269 271 270 267 266 nan nan nan nan nan nan nan nan nan nan nan nan nan nan nan nan nan nan nan nan nan nan nan
nan nan 261 261 260 263 263 263 263 261 263 nan nan nan nan nan nan nan nan nan nan nan nan nan nan nan nan nan nan nan nan nan nan
nan nan nan 256 255 260 261 262 265 261 258 264 nan nan nan nan nan nan nan nan nan nan nan nan nan nan nan nan nan nan nan nan nan
nan nan nan nan 255 252 257 258 259 261 259 256 nan nan nan nan nan nan nan nan nan nan nan nan nan nan nan nan nan nan nan nan nan
nan nan nan nan nan nan 254 255 259 259 259 259 nan nan nan nan nan nan nan nan nan nan nan nan nan nan nan nan nan nan nan nan nan